Вернуться в каталог

COSMOS 828

АктивенВоенныеLEO
NORAD 8892·PAYLOAD·🇷🇺 Russia

Запущен Jun 15, 1976 с Plesetsk Cosmodrome

Loading…

Ближайшие Пролёты (ближайшие 24 часа)

TLE

СвежийSource: Space-Track

Эпоха: Sep 14, 2026, 14:47 UTC

1 08892U 76054D   26257.61599690 -.00000004  00000-0  81197-4 0  9991
2 08892  73.9989 120.5548 0036571 267.9852 105.7929 12.50989280294686

Отслеживайте COSMOS 828 в реальном времени с AllMySat

Download on the App Store